Time,TemperatureF,DewpointF,PressureIn,WindDirection,WindDirectionDegrees,WindSpeedMPH,WindSpeedGustMPH,Humidity,HourlyPrecipIn,Conditions,Clouds,dailyrainin,SoftwareType,DateUTC
2013-02-26 00:00:00,27.8,11.5,30.16,ESE,120,0.0,0.0,50,0.00,,,0.00,Wunderground v.1.15,2013-02-26 07:00:00,
2013-02-26 00:10:00,27.7,12.8,30.16,ESE,120,0.0,0.0,53,0.00,,,0.00,Wunderground v.1.15,2013-02-26 07:10:00,
2013-02-26 00:15:00,27.7,12.8,30.16,ESE,120,0.0,0.0,53,0.00,,,0.00,Wunderground v.1.15,2013-02-26 07:15:00,
2013-02-26 00:25:00,27.6,12.7,30.15,ESE,120,0.0,0.0,53,0.00,,,0.00,Wunderground v.1.15,2013-02-26 07:25:00,
2013-02-26 00:35:00,28.1,13.1,30.15,ESE,113,0.0,0.0,53,0.00,,,0.00,Wunderground v.1.15,2013-02-26 07:35:00,
2013-02-26 00:45:00,28.1,13.6,30.14,ESE,122,0.0,0.0,54,0.00,,,0.00,Wunderground v.1.15,2013-02-26 07:45:00,
2013-02-26 00:55:00,28.4,12.1,30.14,ESE,121,0.0,0.0,50,0.00,,,0.00,Wunderground v.1.15,2013-02-26 07:55:00,
2013-02-26 01:00:00,28.2,12.4,30.14,ESE,122,0.0,0.0,51,0.00,,,0.00,Wunderground v.1.15,2013-02-26 08:00:00,
2013-02-26 01:10:00,27.9,12.1,30.14,ESE,121,0.0,0.0,51,0.00,,,0.00,Wunderground v.1.15,2013-02-26 08:10:00,
2013-02-26 01:20:00,27.5,12.2,30.14,ESE,121,0.0,0.0,52,0.00,,,0.00,Wunderground v.1.15,2013-02-26 08:20:00,
2013-02-26 01:30:00,27.5,12.6,30.14,SE,125,0.0,0.0,53,0.00,,,0.00,Wunderground v.1.15,2013-02-26 08:30:00,
2013-02-26 01:35:00,27.7,12.3,30.14,SE,137,0.0,0.0,52,0.00,,,0.00,Wunderground v.1.15,2013-02-26 08:35:00,
2013-02-26 01:45:00,28.1,12.3,30.13,ESE,111,0.0,0.0,51,0.00,,,0.00,Wunderground v.1.15,2013-02-26 08:45:00,
2013-02-26 01:55:00,28.5,12.6,30.13,ESE,118,0.0,0.0,51,0.00,,,0.00,Wunderground v.1.15,2013-02-26 08:55:00,
2013-02-26 02:00:00,28.4,12.6,30.13,ESE,117,0.0,0.0,51,0.00,,,0.00,Wunderground v.1.15,2013-02-26 09:00:00,
2013-02-26 02:10:00,28.1,12.7,30.13,ESE,117,0.0,0.0,52,0.00,,,0.00,Wunderground v.1.15,2013-02-26 09:10:00,
2013-02-26 02:15:00,27.9,12.5,30.13,ESE,118,0.0,1.0,52,0.00,,,0.00,Wunderground v.1.15,2013-02-26 09:15:00,
2013-02-26 02:25:00,27.8,12.0,30.14,ESE,116,0.0,0.0,51,0.00,,,0.00,Wunderground v.1.15,2013-02-26 09:25:00,
2013-02-26 02:35:00,28.2,11.5,30.13,SE,132,1.0,1.0,49,0.00,,,0.00,Wunderground v.1.15,2013-02-26 09:35:00,
2013-02-26 02:45:00,28.8,11.6,30.13,SE,124,1.0,2.0,48,0.00,,,0.00,Wunderground v.1.15,2013-02-26 09:45:00,
2013-02-26 02:55:00,28.3,12.0,30.13,ESE,114,0.0,0.0,50,0.00,,,0.00,Wunderground v.1.15,2013-02-26 09:55:00,
2013-02-26 03:00:00,28.3,12.0,30.13,ESE,119,0.0,0.0,50,0.00,,,0.00,Wunderground v.1.15,2013-02-26 10:00:00,
2013-02-26 03:10:00,28.3,12.0,30.12,ESE,119,0.0,0.0,50,0.00,,,0.00,Wunderground v.1.15,2013-02-26 10:10:00,
2013-02-26 03:15:00,28.2,12.4,30.12,ESE,121,1.0,2.0,51,0.00,,,0.00,Wunderground v.1.15,2013-02-26 10:15:00,
2013-02-26 03:25:00,28.1,12.7,30.12,ESE,115,0.0,1.0,52,0.00,,,0.00,Wunderground v.1.15,2013-02-26 10:25:00,
2013-02-26 03:35:00,28.1,12.7,30.12,ESE,120,0.0,0.0,52,0.00,,,0.00,Wunderground v.1.15,2013-02-26 10:35:00,
2013-02-26 03:40:00,28.1,13.1,30.11,ESE,117,0.0,0.0,53,0.00,,,0.00,Wunderground v.1.15,2013-02-26 10:40:00,
2013-02-26 03:50:00,28.4,13.4,30.11,SE,125,0.0,0.0,53,0.00,,,0.00,Wunderground v.1.15,2013-02-26 10:50:00,
2013-02-26 04:00:00,28.8,13.4,30.11,ESE,114,1.0,1.0,52,0.00,,,0.00,Wunderground v.1.15,2013-02-26 11:00:00,
2013-02-26 04:10:00,29.0,13.6,30.12,ESE,122,0.0,0.0,52,0.00,,,0.00,Wunderground v.1.15,2013-02-26 11:10:00,
2013-02-26 04:20:00,29.0,14.0,30.11,ESE,121,0.0,0.0,53,0.00,,,0.00,Wunderground v.1.15,2013-02-26 11:20:00,
2013-02-26 04:25:00,28.5,13.9,30.11,ESE,120,0.0,0.0,54,0.00,,,0.00,Wunderground v.1.15,2013-02-26 11:25:00,
2013-02-26 04:30:00,28.2,14.1,30.10,SE,124,0.0,0.0,55,0.00,,,0.00,Wunderground v.1.15,2013-02-26 11:30:00,
2013-02-26 04:35:00,28.1,14.0,30.10,ESE,110,0.0,0.0,55,0.00,,,0.00,Wunderground v.1.15,2013-02-26 11:35:00,
2013-02-26 04:45:00,28.2,14.1,30.10,SE,124,0.0,1.0,55,0.00,,,0.00,Wunderground v.1.15,2013-02-26 11:45:00,
2013-02-26 04:50:00,28.3,14.2,30.11,ESE,120,0.0,0.0,55,0.00,,,0.00,Wunderground v.1.15,2013-02-26 11:50:00,
2013-02-26 04:55:00,28.2,14.1,30.11,ESE,120,0.0,0.0,55,0.00,,,0.00,Wunderground v.1.15,2013-02-26 11:55:00,
2013-02-26 05:00:00,28.2,14.1,30.11,ESE,120,0.0,0.0,55,0.00,,,0.00,Wunderground v.1.15,2013-02-26 12:00:00,
2013-02-26 05:10:00,27.7,14.0,30.11,ESE,120,0.0,0.0,56,0.00,,,0.00,Wunderground v.1.15,2013-02-26 12:10:00,
2013-02-26 05:15:00,27.5,14.2,30.11,ESE,121,0.0,0.0,57,0.00,,,0.00,Wunderground v.1.15,2013-02-26 12:15:00,
2013-02-26 05:25:00,27.5,14.2,30.11,SE,124,0.0,0.0,57,0.00,,,0.00,Wunderground v.1.15,2013-02-26 12:25:00,
2013-02-26 05:35:00,26.7,13.9,30.11,SE,124,0.0,0.0,58,0.00,,,0.00,Wunderground v.1.15,2013-02-26 12:35:00,
2013-02-26 05:40:00,26.5,14.1,30.11,SE,124,0.0,0.0,59,0.00,,,0.00,Wunderground v.1.15,2013-02-26 12:40:00,
2013-02-26 05:50:00,25.9,13.9,30.10,SE,124,0.0,0.0,60,0.00,,,0.00,Wunderground v.1.15,2013-02-26 12:50:00,
2013-02-26 06:00:00,25.7,14.1,30.11,SE,124,0.0,0.0,61,0.00,,,0.00,Wunderground v.1.15,2013-02-26 13:00:00,
2013-02-26 06:10:00,25.5,14.3,30.10,SE,125,0.0,0.0,62,0.00,,,0.00,Wunderground v.1.15,2013-02-26 13:10:00,
2013-02-26 06:20:00,25.7,14.5,30.10,ESE,110,0.0,0.0,62,0.00,,,0.00,Wunderground v.1.15,2013-02-26 13:20:00,
2013-02-26 06:25:00,25.9,14.3,30.10,ESE,115,0.0,0.0,61,0.00,,,0.00,Wunderground v.1.15,2013-02-26 13:25:00,
2013-02-26 06:35:00,26.2,14.6,30.10,SE,129,0.0,0.0,61,0.00,,,0.00,Wunderground v.1.15,2013-02-26 13:35:00,
2013-02-26 06:40:00,26.3,14.3,30.10,ESE,111,1.0,1.0,60,0.00,,,0.00,Wunderground v.1.15,2013-02-26 13:40:00,
2013-02-26 06:50:00,26.2,14.2,30.09,ESE,120,0.0,0.0,60,0.00,,,0.00,Wunderground v.1.15,2013-02-26 13:50:00,
2013-02-26 06:55:00,26.2,14.2,30.09,ESE,105,0.0,2.0,60,0.00,,,0.00,Wunderground v.1.15,2013-02-26 13:55:00,
2013-02-26 07:00:00,26.5,14.1,30.09,SSE,152,1.0,1.0,59,0.00,,,0.00,Wunderground v.1.15,2013-02-26 14:00:00,
2013-02-26 07:10:00,27.0,14.2,30.09,ESE,120,1.0,2.0,58,0.00,,,0.00,Wunderground v.1.15,2013-02-26 14:10:00,
2013-02-26 07:15:00,27.8,14.5,30.09,ESE,109,2.0,2.0,57,0.00,,,0.00,Wunderground v.1.15,2013-02-26 14:15:00,
2013-02-26 07:20:00,28.5,14.8,30.09,SE,132,2.0,2.0,56,0.00,,,0.00,Wunderground v.1.15,2013-02-26 14:20:00,
2013-02-26 07:30:00,29.6,15.0,30.09,ESE,120,1.0,1.0,54,0.00,,,0.00,Wunderground v.1.15,2013-02-26 14:30:00,
2013-02-26 07:40:00,30.6,15.0,30.09,SE,129,0.0,1.0,52,0.00,,,0.00,Wunderground v.1.15,2013-02-26 14:40:00,
2013-02-26 07:45:00,31.3,15.2,30.09,SE,141,1.0,1.0,51,0.00,,,0.00,Wunderground v.1.15,2013-02-26 14:45:00,
2013-02-26 07:55:00,32.7,14.7,30.09,SE,125,4.0,5.0,47,0.00,,,0.00,Wunderground v.1.15,2013-02-26 14:55:00,
2013-02-26 08:00:00,33.6,14.5,30.08,SSE,153,4.0,5.0,45,0.00,,,0.00,Wunderground v.1.15,2013-02-26 15:00:00,
2013-02-26 08:10:00,35.0,14.2,30.08,SSE,164,5.0,7.0,42,0.00,,,0.00,Wunderground v.1.15,2013-02-26 15:10:00,
2013-02-26 08:15:00,35.6,13.6,30.08,SSE,158,5.0,7.0,40,0.00,,,0.00,Wunderground v.1.15,2013-02-26 15:15:00,
2013-02-26 08:20:00,36.1,13.5,30.08,SSE,162,4.0,4.0,39,0.00,,,0.00,Wunderground v.1.15,2013-02-26 15:20:00,
2013-02-26 08:30:00,36.6,13.4,30.08,ESE,107,4.0,6.0,38,0.00,,,0.00,Wunderground v.1.15,2013-02-26 15:30:00,
2013-02-26 08:40:00,37.1,11.9,30.08,ESE,121,5.0,7.0,35,0.00,,,0.00,Wunderground v.1.15,2013-02-26 15:40:00,
2013-02-26 08:50:00,37.5,12.3,30.08,SE,141,5.0,5.0,35,0.00,,,0.00,Wunderground v.1.15,2013-02-26 15:50:00,
2013-02-26 08:55:00,38.0,12.1,30.08,SSE,153,4.0,5.0,34,0.00,,,0.00,Wunderground v.1.15,2013-02-26 15:55:00,
2013-02-26 09:00:00,38.3,12.3,30.08,SSE,165,4.0,4.0,34,0.00,,,0.00,Wunderground v.1.15,2013-02-26 16:00:00,
2013-02-26 09:10:00,38.4,12.4,30.08,SSW,193,5.0,5.0,34,0.00,,,0.00,Wunderground v.1.15,2013-02-26 16:10:00,
2013-02-26 09:20:00,38.8,13.4,30.08,SSW,207,4.0,4.0,35,0.00,,,0.00,Wunderground v.1.15,2013-02-26 16:20:00,
2013-02-26 09:30:00,38.7,14.0,30.08,SSW,211,4.0,4.0,36,0.00,,,0.00,Wunderground v.1.15,2013-02-26 16:30:00,
2013-02-26 09:35:00,39.0,13.6,30.08,SSE,148,4.0,4.0,35,0.00,,,0.00,Wunderground v.1.15,2013-02-26 16:35:00,
2013-02-26 09:40:00,39.2,13.1,30.07,SE,146,4.0,4.0,34,0.00,,,0.00,Wunderground v.1.15,2013-02-26 16:40:00,
2013-02-26 09:50:00,39.7,12.9,30.07,SE,133,4.0,4.0,33,0.00,,,0.00,Wunderground v.1.15,2013-02-26 16:50:00,
2013-02-26 10:00:00,40.4,12.8,30.07,SE,132,4.0,7.0,32,0.00,,,0.00,Wunderground v.1.15,2013-02-26 17:00:00,
2013-02-26 10:10:00,40.9,11.8,30.06,SW,218,3.0,3.0,30,0.00,,,0.00,Wunderground v.1.15,2013-02-26 17:10:00,
2013-02-26 10:15:00,41.5,12.3,30.06,SSW,197,2.0,3.0,30,0.00,,,0.00,Wunderground v.1.15,2013-02-26 17:15:00,
2013-02-26 10:25:00,42.1,12.1,30.06,South,190,3.0,5.0,29,0.00,,,0.00,Wunderground v.1.15,2013-02-26 17:25:00,
2013-02-26 10:30:00,42.5,11.6,30.06,SSW,200,3.0,3.0,28,0.00,,,0.00,Wunderground v.1.15,2013-02-26 17:30:00,
2013-02-26 10:40:00,42.2,11.4,30.06,WSW,239,2.0,2.0,28,0.00,,,0.00,Wunderground v.1.15,2013-02-26 17:40:00,
2013-02-26 10:50:00,42.2,11.4,30.06,SW,220,3.0,3.0,28,0.00,,,0.00,Wunderground v.1.15,2013-02-26 17:50:00,
2013-02-26 11:00:00,42.9,9.4,30.05,West,266,4.0,4.0,25,0.00,,,0.00,Wunderground v.1.15,2013-02-26 18:00:00,
2013-02-26 11:10:00,43.7,10.1,30.05,WSW,257,3.0,3.0,25,0.00,,,0.00,Wunderground v.1.15,2013-02-26 18:10:00,
2013-02-26 11:15:00,43.9,9.4,30.04,NNW,335,4.0,5.0,24,0.00,,,0.00,Wunderground v.1.15,2013-02-26 18:15:00,
2013-02-26 11:20:00,43.8,10.2,30.04,South,188,4.0,4.0,25,0.00,,,0.00,Wunderground v.1.15,2013-02-26 18:20:00,
2013-02-26 11:30:00,44.3,9.7,30.03,NW,315,4.0,4.0,24,0.00,,,0.00,Wunderground v.1.15,2013-02-26 18:30:00,
2013-02-26 11:40:00,44.5,9.9,30.03,North,356,5.0,9.0,24,0.00,,,0.00,Wunderground v.1.15,2013-02-26 18:40:00,
2013-02-26 11:50:00,44.6,8.0,30.02,NW,326,4.0,5.0,22,0.00,,,0.00,Wunderground v.1.15,2013-02-26 18:50:00,
2013-02-26 11:55:00,45.4,4.3,30.02,NW,304,6.0,11.0,18,0.00,,,0.00,Wunderground v.1.15,2013-02-26 18:55:00,
2013-02-26 12:00:00,45.8,4.6,30.01,West,278,9.0,13.0,18,0.00,,,0.00,Wunderground v.1.15,2013-02-26 19:00:00,
2013-02-26 12:10:00,46.2,3.7,30.02,NNE,13,11.0,11.0,17,0.00,,,0.00,Wunderground v.1.15,2013-02-26 19:10:00,
2013-02-26 12:15:00,46.1,3.6,30.01,WNW,292,9.0,11.0,17,0.00,,,0.00,Wunderground v.1.15,2013-02-26 19:15:00,
2013-02-26 12:20:00,46.1,4.9,30.01,West,264,8.0,8.0,18,0.00,,,0.00,Wunderground v.1.15,2013-02-26 19:20:00,
2013-02-26 12:30:00,45.7,4.5,30.01,North,8,11.0,19.0,18,0.00,,,0.00,Wunderground v.1.15,2013-02-26 19:30:00,
2013-02-26 12:40:00,44.7,6.0,30.00,NW,317,11.0,11.0,20,0.00,,,0.00,Wunderground v.1.15,2013-02-26 19:40:00,
2013-02-26 12:50:00,45.6,5.6,30.00,NW,315,10.0,11.0,19,0.00,,,0.00,Wunderground v.1.15,2013-02-26 19:50:00,
2013-02-26 12:55:00,45.2,4.1,30.00,WNW,293,11.0,13.0,18,0.00,,,0.00,Wunderground v.1.15,2013-02-26 19:55:00,
2013-02-26 13:00:00,45.5,4.4,30.00,NNW,330,12.0,12.0,18,0.00,,,0.00,Wunderground v.1.15,2013-02-26 20:00:00,
2013-02-26 13:10:00,44.9,5.1,29.99,NW,326,11.0,11.0,19,0.00,,,0.00,Wunderground v.1.15,2013-02-26 20:10:00,
2013-02-26 13:20:00,45.0,5.1,30.00,NW,315,13.0,15.0,19,0.00,,,0.00,Wunderground v.1.15,2013-02-26 20:20:00,
2013-02-26 13:30:00,45.2,1.6,30.00,WNW,290,12.0,12.0,16,0.00,,,0.00,Wunderground v.1.15,2013-02-26 20:30:00,
2013-02-26 13:35:00,45.1,2.8,30.00,WNW,292,12.0,12.0,17,0.00,,,0.00,Wunderground v.1.15,2013-02-26 20:35:00,
2013-02-26 13:45:00,45.2,1.6,30.00,NNW,328,12.0,12.0,16,0.00,,,0.00,Wunderground v.1.15,2013-02-26 20:45:00,
2013-02-26 13:55:00,45.0,0.0,29.99,NW,316,12.0,19.0,15,0.00,,,0.00,Wunderground v.1.15,2013-02-26 20:55:00,
2013-02-26 14:00:00,44.6,-0.3,30.00,NW,317,12.0,12.0,15,0.00,,,0.00,Wunderground v.1.15,2013-02-26 21:00:00,
2013-02-26 14:10:00,44.0,-2.2,30.00,WNW,288,16.0,16.0,14,0.00,,,0.00,Wunderground v.1.15,2013-02-26 21:10:00,
2013-02-26 14:20:00,44.9,-0.1,30.00,WNW,299,11.0,15.0,15,0.00,,,0.00,Wunderground v.1.15,2013-02-26 21:20:00,
2013-02-26 14:30:00,43.8,-0.9,30.02,NNW,345,14.0,14.0,15,0.00,,,0.00,Wunderground v.1.15,2013-02-26 21:30:00,
2013-02-26 14:40:00,43.7,-2.5,30.02,NNW,342,14.0,19.0,14,0.00,,,0.00,Wunderground v.1.15,2013-02-26 21:40:00,
2013-02-26 14:50:00,44.0,-2.2,30.02,NW,326,12.0,13.0,14,0.00,,,0.00,Wunderground v.1.15,2013-02-26 21:50:00,
2013-02-26 15:00:00,43.6,0.3,30.03,NNE,13,13.0,16.0,16,0.00,,,0.00,Wunderground v.1.15,2013-02-26 22:00:00,
2013-02-26 15:10:00,43.6,-2.6,30.03,NW,322,11.0,11.0,14,0.00,,,0.00,Wunderground v.1.15,2013-02-26 22:10:00,
2013-02-26 15:20:00,43.2,-1.4,30.04,NW,322,13.0,16.0,15,0.00,,,0.00,Wunderground v.1.15,2013-02-26 22:20:00,
2013-02-26 15:30:00,42.7,-1.8,30.04,WNW,295,14.0,14.0,15,0.00,,,0.00,Wunderground v.1.15,2013-02-26 22:30:00,
2013-02-26 15:35:00,42.9,-1.7,30.05,NNW,340,13.0,14.0,15,0.00,,,0.00,Wunderground v.1.15,2013-02-26 22:35:00,
2013-02-26 15:40:00,42.5,-2.0,30.05,NNW,333,13.0,22.0,15,0.00,,,0.00,Wunderground v.1.15,2013-02-26 22:40:00,
2013-02-26 15:45:00,42.4,-2.1,30.05,NW,307,14.0,22.0,15,0.00,,,0.00,Wunderground v.1.15,2013-02-26 22:45:00,
2013-02-26 15:55:00,42.6,-3.4,30.05,WNW,300,12.0,16.0,14,0.00,,,0.00,Wunderground v.1.15,2013-02-26 22:55:00,
2013-02-26 16:00:00,42.2,-3.7,30.06,NNW,328,14.0,18.0,14,0.00,,,0.00,Wunderground v.1.15,2013-02-26 23:00:00,
2013-02-26 16:10:00,41.9,-3.9,30.06,NNW,338,14.0,14.0,14,0.00,,,0.00,Wunderground v.1.15,2013-02-26 23:10:00,
2013-02-26 16:15:00,42.1,-3.8,30.06,NW,308,13.0,14.0,14,0.00,,,0.00,Wunderground v.1.15,2013-02-26 23:15:00,
2013-02-26 16:20:00,42.2,-2.2,30.06,North,9,11.0,11.0,15,0.00,,,0.00,Wunderground v.1.15,2013-02-26 23:20:00,
2013-02-26 16:25:00,42.1,-3.8,30.06,NNW,339,11.0,12.0,14,0.00,,,0.00,Wunderground v.1.15,2013-02-26 23:25:00,
2013-02-26 16:35:00,41.6,-4.2,30.07,NW,324,13.0,14.0,14,0.00,,,0.00,Wunderground v.1.15,2013-02-26 23:35:00,
2013-02-26 16:45:00,41.4,-2.9,30.07,NW,319,11.0,15.0,15,0.00,,,0.00,Wunderground v.1.15,2013-02-26 23:45:00,
2013-02-26 16:50:00,41.0,-3.2,30.08,NNW,336,12.0,12.0,15,0.00,,,0.00,Wunderground v.1.15,2013-02-26 23:50:00,
2013-02-26 16:55:00,41.0,-1.9,30.08,NNW,335,11.0,12.0,16,0.00,,,0.00,Wunderground v.1.15,2013-02-26 23:55:00,
2013-02-26 17:00:00,40.9,-3.3,30.08,WNW,300,10.0,10.0,15,0.00,,,0.00,Wunderground v.1.15,2013-02-27 00:00:00,
2013-02-26 17:10:00,40.1,-8.6,30.09,NNW,333,15.0,15.0,12,0.00,,,0.00,Wunderground v.1.15,2013-02-27 00:10:00,
2013-02-26 17:15:00,39.9,-8.7,30.09,North,4,16.0,16.0,12,0.00,,,0.00,Wunderground v.1.15,2013-02-27 00:15:00,
2013-02-26 17:20:00,39.7,-8.9,30.09,NW,322,13.0,16.0,12,0.00,,,0.00,Wunderground v.1.15,2013-02-27 00:20:00,
2013-02-26 17:25:00,39.6,-9.0,30.09,NW,322,12.0,16.0,12,0.00,,,0.00,Wunderground v.1.15,2013-02-27 00:25:00,
2013-02-26 17:35:00,39.5,-9.0,30.10,WNW,291,11.0,15.0,12,0.00,,,0.00,Wunderground v.1.15,2013-02-27 00:35:00,
2013-02-26 17:45:00,39.2,-9.3,30.10,NW,304,10.0,12.0,12,0.00,,,0.00,Wunderground v.1.15,2013-02-27 00:45:00,
2013-02-26 17:55:00,38.4,-4.0,30.10,North,351,12.0,14.0,16,0.00,,,0.00,Wunderground v.1.15,2013-02-27 00:55:00,
2013-02-26 18:00:00,38.1,-4.2,30.11,NNW,328,11.0,12.0,16,0.00,,,0.00,Wunderground v.1.15,2013-02-27 01:00:00,
2013-02-26 18:10:00,37.7,-3.3,30.12,NNW,330,11.0,11.0,17,0.00,,,0.00,Wunderground v.1.15,2013-02-27 01:10:00,
2013-02-26 18:20:00,37.3,-2.4,30.12,NW,321,10.0,13.0,18,0.00,,,0.00,Wunderground v.1.15,2013-02-27 01:20:00,
2013-02-26 18:25:00,37.2,-2.5,30.13,NW,311,11.0,13.0,18,0.00,,,0.00,Wunderground v.1.15,2013-02-27 01:25:00,
2013-02-26 18:35:00,36.7,-0.7,30.14,North,8,11.0,12.0,20,0.00,,,0.00,Wunderground v.1.15,2013-02-27 01:35:00,
2013-02-26 18:40:00,36.5,0.2,30.14,NNW,344,11.0,11.0,21,0.00,,,0.00,Wunderground v.1.15,2013-02-27 01:40:00,
2013-02-26 18:50:00,36.0,-0.2,30.15,North,11,8.0,8.0,21,0.00,,,0.00,Wunderground v.1.15,2013-02-27 01:50:00,
2013-02-26 19:00:00,35.6,-0.6,30.16,NW,320,8.0,12.0,21,0.00,,,0.00,Wunderground v.1.15,2013-02-27 02:00:00,
2013-02-26 19:10:00,35.3,-0.8,30.16,NNW,328,9.0,15.0,21,0.00,,,0.00,Wunderground v.1.15,2013-02-27 02:10:00,
2013-02-26 19:15:00,35.2,0.1,30.17,WNW,297,7.0,15.0,22,0.00,,,0.00,Wunderground v.1.15,2013-02-27 02:15:00,
2013-02-26 19:25:00,34.9,0.8,30.17,NE,44,6.0,6.0,23,0.00,,,0.00,Wunderground v.1.15,2013-02-27 02:25:00,
2013-02-26 19:35:00,34.7,0.6,30.18,North,352,6.0,9.0,23,0.00,,,0.00,Wunderground v.1.15,2013-02-27 02:35:00,
2013-02-26 19:40:00,34.6,0.5,30.19,North,360,6.0,6.0,23,0.00,,,0.00,Wunderground v.1.15,2013-02-27 02:40:00,
2013-02-26 19:45:00,34.5,0.4,30.19,NNE,14,7.0,7.0,23,0.00,,,0.00,Wunderground v.1.15,2013-02-27 02:45:00,
2013-02-26 19:55:00,34.2,1.1,30.20,NNE,20,6.0,7.0,24,0.00,,,0.00,Wunderground v.1.15,2013-02-27 02:55:00,
2013-02-26 20:00:00,34.0,0.9,30.20,NE,36,5.0,5.0,24,0.00,,,0.00,Wunderground v.1.15,2013-02-27 03:00:00,
2013-02-26 20:10:00,34.0,0.9,30.21,NNW,340,7.0,7.0,24,0.00,,,0.00,Wunderground v.1.15,2013-02-27 03:10:00,
2013-02-26 20:20:00,33.9,1.7,30.21,NNE,13,7.0,7.0,25,0.00,,,0.00,Wunderground v.1.15,2013-02-27 03:20:00,
2013-02-26 20:30:00,33.6,2.3,30.22,NE,49,5.0,5.0,26,0.00,,,0.00,Wunderground v.1.15,2013-02-27 03:30:00,
2013-02-26 20:40:00,33.2,2.8,30.23,North,358,4.0,4.0,27,0.00,,,0.00,Wunderground v.1.15,2013-02-27 03:40:00,
2013-02-26 20:45:00,32.9,2.5,30.23,NNE,12,3.0,4.0,27,0.00,,,0.00,Wunderground v.1.15,2013-02-27 03:45:00,
2013-02-26 20:55:00,32.7,2.3,30.23,North,349,2.0,3.0,27,0.00,,,0.00,Wunderground v.1.15,2013-02-27 03:55:00,
2013-02-26 21:00:00,32.7,2.3,30.24,NNE,19,3.0,4.0,27,0.00,,,0.00,Wunderground v.1.15,2013-02-27 04:00:00,
2013-02-26 21:10:00,32.8,1.6,30.24,North,352,4.0,4.0,26,0.00,,,0.00,Wunderground v.1.15,2013-02-27 04:10:00,
2013-02-26 21:15:00,32.6,1.4,30.25,WNW,297,3.0,4.0,26,0.00,,,0.00,Wunderground v.1.15,2013-02-27 04:15:00,
2013-02-26 21:20:00,32.5,1.4,30.25,NW,318,2.0,4.0,26,0.00,,,0.00,Wunderground v.1.15,2013-02-27 04:20:00,
2013-02-26 21:25:00,32.7,1.5,30.25,NNW,345,5.0,6.0,26,0.00,,,0.00,Wunderground v.1.15,2013-02-27 04:25:00,
2013-02-26 21:35:00,32.7,2.3,30.26,NW,308,5.0,6.0,27,0.00,,,0.00,Wunderground v.1.15,2013-02-27 04:35:00,
2013-02-26 21:40:00,32.5,2.2,30.26,NNW,329,4.0,7.0,27,0.00,,,0.00,Wunderground v.1.15,2013-02-27 04:40:00,
2013-02-26 21:50:00,32.4,2.1,30.27,North,355,5.0,10.0,27,0.00,,,0.00,Wunderground v.1.15,2013-02-27 04:50:00,
2013-02-26 21:55:00,32.4,2.9,30.27,North,4,5.0,10.0,28,0.00,,,0.00,Wunderground v.1.15,2013-02-27 04:55:00,
2013-02-26 22:00:00,32.5,2.2,30.27,NNW,336,7.0,8.0,27,0.00,,,0.00,Wunderground v.1.15,2013-02-27 05:00:00,
2013-02-26 22:10:00,32.1,2.6,30.27,NE,44,5.0,6.0,28,0.00,,,0.00,Wunderground v.1.15,2013-02-27 05:10:00,
2013-02-26 22:15:00,32.1,2.6,30.28,NW,319,6.0,6.0,28,0.00,,,0.00,Wunderground v.1.15,2013-02-27 05:15:00,
2013-02-26 22:20:00,31.9,3.2,30.27,NNW,333,5.0,5.0,29,0.00,,,0.00,Wunderground v.1.15,2013-02-27 05:20:00,
2013-02-26 22:25:00,31.7,3.0,30.27,NNW,344,4.0,5.0,29,0.00,,,0.00,Wunderground v.1.15,2013-02-27 05:25:00,
2013-02-26 22:30:00,31.5,3.6,30.28,NNW,342,4.0,4.0,30,0.00,,,0.00,Wunderground v.1.15,2013-02-27 05:30:00,
2013-02-26 22:35:00,31.3,4.1,30.27,East,84,4.0,4.0,31,0.00,,,0.00,Wunderground v.1.15,2013-02-27 05:35:00,
2013-02-26 22:45:00,31.7,4.5,30.28,NNW,331,8.0,8.0,31,0.00,,,0.00,Wunderground v.1.15,2013-02-27 05:45:00,
2013-02-26 22:50:00,31.3,4.1,30.27,NNW,329,7.0,7.0,31,0.00,,,0.00,Wunderground v.1.15,2013-02-27 05:50:00,
2013-02-26 23:00:00,31.2,4.7,30.27,North,349,8.0,8.0,32,0.00,,,0.00,Wunderground v.1.15,2013-02-27 06:00:00,
2013-02-26 23:10:00,30.9,5.1,30.27,North,4,8.0,10.0,33,0.00,,,0.00,Wunderground v.1.15,2013-02-27 06:10:00,
2013-02-26 23:20:00,30.6,5.5,30.27,NNW,340,8.0,8.0,34,0.00,,,0.00,Wunderground v.1.15,2013-02-27 06:20:00,
2013-02-26 23:30:00,30.5,6.1,30.28,NNW,334,8.0,8.0,35,0.00,,,0.00,Wunderground v.1.15,2013-02-27 06:30:00,
2013-02-26 23:35:00,30.3,5.9,30.28,NNW,338,8.0,8.0,35,0.00,,,0.00,Wunderground v.1.15,2013-02-27 06:35:00,
2013-02-26 23:45:00,30.2,6.4,30.28,NNE,21,8.0,8.0,36,0.00,,,0.00,Wunderground v.1.15,2013-02-27 06:45:00,
2013-02-26 23:55:00,29.9,6.7,30.29,North,11,5.0,7.0,37,0.00,,,0.00,Wunderground v.1.15,2013-02-27 06:55:00,